Regional Weather Roundup
Issued by NWS Lake Charles, LA

Home | Current Version | Previous Version | Text Only | Print | Product List | Glossary On
Versions: 1 2 3 4 5 6 7 8 9 10 11 12 13 14 15 16 17 18 19 20 21 22 23 24 25 26 27
000
ASUS44 KLCH 300610
RWRLCH
REGIONAL WEATHER ROUNDUP
NATIONAL WEATHER SERVICE LAKE CHARLES LA
100 AM CDT MON MAY 30 2016

Note: "fair" indicates few or no clouds below 12,000 feet with no
significant weather and/or obstructions to visibility.


ACROSS SOUTHEAST TEXAS

CITY           SKY/WX    TMP DP  RH WIND       PRES   REMARKS
BEAUMONT       CLEAR     72  70  93 CALM      30.04F
BEAUMONT CITY  FAIR      73  71  93 CALM      30.05F
ORANGE         MOCLDY    71  69  93 CALM      30.06F FOG
JASPER         CLEAR     70  69  96 CALM      30.08F
$$

ACROSS CENTRAL LOUISIANA

CITY           SKY/WX    TMP DP  RH WIND       PRES   REMARKS
LEESVILLE      CLEAR     72  69  93 E2        30.05F
FULLERTON      FAIR      71  68  90 CALM      30.02
ALEXANDRIA INT CLEAR     73  71  93 SE3       30.02F
ESLER FIELD    CLEAR     72  69  90 CALM      30.04F FOG
DERIDDER       FAIR      73  72  95 CALM      30.07F
OAKDALE        CLEAR     71  70  98 CALM      30.05F FOG
OPELOUSAS      FAIR      73  72  97 CALM      30.05F
$$

ACROSS SOUTHWEST AND SOUTH CENTRAL LOUISIANA

CITY           SKY/WX    TMP DP  RH WIND       PRES   REMARKS
SULPHUR        CLEAR     76  75  95 CALM      30.06F
LAKE CHARLES   PTCLDY    75  73  93 CALM      30.05F
CHENNAULT INT  NOT AVBL
CAMERON PHI    CLEAR     77  73  88 CALM      30.08F
DEQUINCY       FAIR      71  71 100 CALM      30.06F
JENNINGS       FAIR      75  73  94 MISG      30.06F
LAFAYETTE      CLEAR     75  73  93 CALM      30.07F
NEW IBERIA     CLEAR     75  72  90 SW3       30.08F
ABBEVILLE      FAIR      74  74  98 CALM      30.07F
PATTERSON      CLEAR     73  73 100 CALM      30.07
SALT POINT       N/A     76  74  93 CALM      30.05F
$$

SELECTED SITES ACROSS THE REGION

CITY           SKY/WX    TMP DP  RH WIND       PRES   REMARKS
HOUSTON BUSH   PTCLDY    71  71 100 S3        30.03F
HOUSTON HOBBY  CLOUDY    74  72  93 S3        30.02F
GALVESTON      CLOUDY    77  74  90 S7        30.04F
COLLEGE STAT   CLEAR     75  72  90 S5        30.04F
CONROE         CLEAR     71  70  96 CALM      30.04F
HUNTSVILLE     CLEAR     76  69  79 S6        30.04F
LUFKIN         PTCLDY    72  70  93 SE3       30.05F
SHREVEPORT     CLOUDY    74  65  73 NE3       30.04F
MONROE         CLEAR     71  68  90 CALM      30.06F
NATCHEZ MS     CLOUDY    72  66  83 CALM      30.08F
BATON ROUGE    CLEAR     77  70  79 SW9       30.08F
N.O. INTL ARPT PTCLDY    76  69  79 W6        30.07R
SLIDELL        CLOUDY    73  71  93 CALM      30.06S
$$

MARINE REPORTS

STATION/POSITION TIME  SKY/WX   TEMP    WIND        PRES    VSBY
                                AIR SEA DIR/SP/G
                 (UTC)          (F)     (DEG/KT/KT) (MB)    (MI)
BUOY 30 S HIGH I 0550            79 82  130/  6/  8 1016.6F
WVE H/P(F/S)=  2/ 5

SEA RIM ST PARK  0600            79     170/  3/  4 1017.9F
PORT ARTHUR      0500               80  170/  2/  3 1018.0F
SABINE PASS N    0500            78 81  190/  2/  3 1019.3F
TEXAS POINT      NOT AVBL
CALCASIEU PASS   0500            80 83  230/  3/  5 1017.5F
LK CHARLES BEACH 0500            78 78              1018.8F
MARSH ISLAND     0500            80                   N/A
FRESH WATER LOCK 0500            78 83  250/  4/  4 1019.5R
AMERADA PASS     0500            76 77     CALM     1018.5R
$$




USA.gov is the U.S. government's official web portal to all federal, state and local government web resources and services.